When you browse on this site, cookies collect data to enhance your experience and personalize the content and advertising you see.
Visit our Privacy Policy to learn more. By continuing to use the site, you agree to this use of cookies and data.
  • în România
  • Lista ţărilor
  • Pe 7 zile
  • Temperatura apei
  • Hartă satelitară
  • Meteo pe hartă
  • Widget-uri
  • user-avatar
    Intrare

    Meteo pe oră la Arredondo

    Astăzi, 17 Februarie, Duminică

    Timp Temperatura Precipitaţii Vânt Presiune Umiditate
    00:00 +10°C° 0 mm 4 m/s 712 mmHg 46%
    01:00 +8°C° 0 mm 4 m/s 712 mmHg 48%
    02:00 +9°C° 0 mm 3 m/s 712 mmHg 51%
    03:00 +8°C° 0 mm 3 m/s 712 mmHg 53%
    04:00 +8°C° 0 mm 3 m/s 712 mmHg 54%
    05:00 +7°C° 0 mm 3 m/s 712 mmHg 54%
    06:00 +7°C° 0 mm 3 m/s 712 mmHg 55%
    07:00 +8°C° 0 mm 3 m/s 712 mmHg 55%
    08:00 +9°C° 0 mm 3 m/s 712 mmHg 55%
    09:00 +9°C° 0 mm 3 m/s 712 mmHg 55%
    10:00 +11°C° 0 mm 3 m/s 712 mmHg 51%
    11:00 +13°C° 0 mm 3 m/s 712 mmHg 47%
    12:00 +16°C° 0 mm 2 m/s 712 mmHg 43%
    13:00 +16°C° 0 mm 2 m/s 711 mmHg 42%
    14:00 +17°C° 0 mm 2 m/s 711 mmHg 41%
    15:00 +17°C° 0 mm 2 m/s 710 mmHg 40%
    16:00 +15°C° 0 mm 2 m/s 710 mmHg 47%
    17:00 +13°C° 0 mm 2 m/s 709 mmHg 54%
    18:00 +10°C° 0 mm 2 m/s 709 mmHg 60%
    19:00 +9°C° 0 mm 2 m/s 709 mmHg 61%
    20:00 +8°C° 0 mm 2 m/s 709 mmHg 62%
    21:00 +8°C° 0 mm 2 m/s 709 mmHg 63%
    22:00 +7°C° 0 mm 2 m/s 709 mmHg 63%
    23:00 +7°C° 0 mm 2 m/s 709 mmHg 63%

    Mâine, 18 Februarie, Luni

    Timp Temperatura Precipitaţii Vânt Presiune Umiditate
    00:00 +6°C° 0 mm 2 m/s 709 mmHg 62%
    01:00 +6°C° 0 mm 2 m/s 709 mmHg 62%
    02:00 +6°C° 0 mm 2 m/s 709 mmHg 62%
    03:00 +5°C° 0 mm 2 m/s 709 mmHg 62%
    04:00 +5°C° 0 mm 2 m/s 709 mmHg 64%
    05:00 +5°C° 0 mm 2 m/s 709 mmHg 65%
    06:00 +5°C° 0 mm 2 m/s 709 mmHg 67%
    07:00 +6°C° 0 mm 2 m/s 709 mmHg 68%
    08:00 +7°C° 0 mm 1 m/s 709 mmHg 68%
    09:00 +8°C° 0 mm 1 m/s 710 mmHg 69%
    10:00 +10°C° 0 mm 1 m/s 710 mmHg 65%
    11:00 +12°C° 0 mm 1 m/s 710 mmHg 61%
    12:00 +13°C° 0 mm 1 m/s 711 mmHg 56%
    13:00 +13°C° 0 mm 1 m/s 710 mmHg 62%
    14:00 +12°C° 0 mm 2 m/s 710 mmHg 67%
    15:00 +12°C° 0 mm 2 m/s 710 mmHg 72%
    16:00 +10°C° 0.1 mm 2 m/s 710 mmHg 80%
    17:00 +9°C° 0.1 mm 2 m/s 710 mmHg 88%
    18:00 +8°C° 0.1 mm 1 m/s 710 mmHg 96%
    19:00 +8°C° 0.1 mm 1 m/s 711 mmHg 97%
    20:00 +8°C° 0.1 mm 1 m/s 711 mmHg 97%
    21:00 +8°C° 0.1 mm 1 m/s 712 mmHg 97%
    22:00 +8°C° 0.1 mm 1 m/s 712 mmHg 97%
    23:00 +8°C° 0.1 mm 1 m/s 712 mmHg 97%

    Poimâine, 19 Februarie, Marţi

    Timp Temperatura Precipitaţii Vânt Presiune Umiditate
    00:00 +8°C° 0.1 mm 1 m/s 712 mmHg 97%
    01:00 +8°C° 0 mm 1 m/s 712 mmHg 96%
    02:00 +7°C° 0 mm 0 m/s 712 mmHg 96%
    03:00 +7°C° 0 mm 0 m/s 712 mmHg 95%
    04:00 +7°C° 0 mm 1 m/s 712 mmHg 96%
    05:00 +7°C° 0 mm 1 m/s 712 mmHg 96%
    06:00 +6°C° 0 mm 1 m/s 712 mmHg 96%
    07:00 +7°C° 0 mm 1 m/s 712 mmHg 93%
    08:00 +7°C° 0 mm 1 m/s 712 mmHg 89%
    09:00 +8°C° 0 mm 1 m/s 713 mmHg 86%
    10:00 +10°C° 0 mm 1 m/s 713 mmHg 76%
    11:00 +12°C° 0 mm 1 m/s 713 mmHg 66%
    12:00 +14°C° 0 mm 1 m/s 713 mmHg 56%
    13:00 +14°C° 0 mm 2 m/s 713 mmHg 54%
    14:00 +15°C° 0 mm 2 m/s 712 mmHg 53%
    15:00 +15°C° 0 mm 2 m/s 712 mmHg 51%
    16:00 +13°C° 0 mm 2 m/s 711 mmHg 61%
    17:00 +11°C° 0 mm 1 m/s 711 mmHg 71%
    18:00 +8°C° 0 mm 1 m/s 711 mmHg 81%
    19:00 +8°C° 0 mm 1 m/s 711 mmHg 80%
    20:00 +8°C° 0 mm 1 m/s 711 mmHg 80%
    21:00 +7°C° 0 mm 1 m/s 712 mmHg 79%
    22:00 +7°C° 0 mm 1 m/s 712 mmHg 78%
    23:00 +7°C° 0 mm 1 m/s 712 mmHg 76%

    20 Februarie, Miercuri

    Timp Temperatura Precipitaţii Vânt Presiune Umiditate
    00:00 +6°C° 0 mm 2 m/s 712 mmHg 75%
    01:00 +6°C° 0 mm 2 m/s 712 mmHg 75%
    02:00 +6°C° 0 mm 2 m/s 712 mmHg 76%
    03:00 +5°C° 0 mm 2 m/s 712 mmHg 76%
    04:00 +5°C° 0 mm 2 m/s 712 mmHg 76%
    05:00 +5°C° 0 mm 2 m/s 712 mmHg 76%
    06:00 +5°C° 0 mm 2 m/s 712 mmHg 76%
    07:00 +7°C° 0 mm 1 m/s 713 mmHg 73%
    08:00 +8°C° 0 mm 1 m/s 713 mmHg 69%
    09:00 +9°C° 0 mm 1 m/s 714 mmHg 65%
    10:00 +12°C° 0 mm 1 m/s 714 mmHg 60%
    11:00 +14°C° 0 mm 1 m/s 714 mmHg 54%
    12:00 +16°C° 0 mm 1 m/s 714 mmHg 48%
    13:00 +16°C° 0 mm 1 m/s 714 mmHg 48%
    14:00 +16°C° 0 mm 1 m/s 714 mmHg 49%
    15:00 +16°C° 0 mm 2 m/s 714 mmHg 49%
    16:00 +14°C° 0 mm 1 m/s 713 mmHg 57%
    17:00 +12°C° 0 mm 1 m/s 713 mmHg 66%
    18:00 +10°C° 0 mm 1 m/s 713 mmHg 74%
    19:00 +9°C° 0 mm 1 m/s 713 mmHg 74%
    20:00 +9°C° 0 mm 1 m/s 714 mmHg 74%
    21:00 +8°C° 0 mm 1 m/s 714 mmHg 75%
    22:00 +7°C° 0 mm 2 m/s 714 mmHg 75%
    23:00 +7°C° 0 mm 2 m/s 714 mmHg 74%

    21 Februarie, Joi

    Timp Temperatura Precipitaţii Vânt Presiune Umiditate
    00:00 +7°C° 0 mm 2 m/s 714 mmHg 74%
    01:00 +7°C° 0 mm 2 m/s 714 mmHg 74%
    02:00 +6°C° 0 mm 2 m/s 714 mmHg 74%
    03:00 +6°C° 0 mm 2 m/s 714 mmHg 74%
    04:00 +5°C° 0 mm 3 m/s 714 mmHg 72%
    05:00 +5°C° 0 mm 3 m/s 714 mmHg 70%
    06:00 +5°C° 0 mm 3 m/s 714 mmHg 68%
    07:00 +7°C° 0 mm 3 m/s 715 mmHg 64%
    08:00 +8°C° 0 mm 3 m/s 715 mmHg 61%
    09:00 +9°C° 0 mm 3 m/s 716 mmHg 57%
    10:00 +12°C° 0 mm 2 m/s 716 mmHg 52%
    11:00 +14°C° 0 mm 2 m/s 716 mmHg 47%
    12:00 +16°C° 0 mm 2 m/s 716 mmHg 42%
    13:00 +17°C° 0 mm 2 m/s 716 mmHg 41%
    14:00 +17°C° 0 mm 2 m/s 716 mmHg 39%
    15:00 +18°C° 0 mm 2 m/s 716 mmHg 38%
    16:00 +16°C° 0 mm 2 m/s 716 mmHg 45%
    17:00 +14°C° 0 mm 2 m/s 716 mmHg 52%
    18:00 +10°C° 0 mm 2 m/s 716 mmHg 59%
    19:00 +10°C° 0 mm 2 m/s 716 mmHg 60%
    20:00 +9°C° 0 mm 2 m/s 716 mmHg 60%
    21:00 +8°C° 0 mm 3 m/s 717 mmHg 61%
    22:00 +8°C° 0 mm 3 m/s 717 mmHg 61%
    23:00 +8°C° 0 mm 3 m/s 717 mmHg 61%

    22 Februarie, Vineri

    Timp Temperatura Precipitaţii Vânt Presiune Umiditate
    00:00 +7°C° 0 mm 3 m/s 717 mmHg 60%
    01:00 +7°C° 0 mm 3 m/s 717 mmHg 61%
    02:00 +7°C° 0 mm 3 m/s 717 mmHg 62%
    03:00 +7°C° 0 mm 3 m/s 717 mmHg 64%
    04:00 +6°C° 0 mm 2 m/s 717 mmHg 65%
    05:00 +6°C° 0 mm 2 m/s 717 mmHg 66%
    06:00 +6°C° 0 mm 2 m/s 717 mmHg 67%
    07:00 +7°C° 0 mm 2 m/s 717 mmHg 63%
    08:00 +8°C° 0 mm 2 m/s 717 mmHg 59%
    09:00 +9°C° 0 mm 2 m/s 718 mmHg 56%
    10:00 +13°C° 0 mm 2 m/s 718 mmHg 49%
    11:00 +15°C° 0 mm 2 m/s 718 mmHg 43%
    12:00 +17°C° 0 mm 2 m/s 718 mmHg 36%
    13:00 +18°C° 0 mm 2 m/s 717 mmHg 35%
    14:00 +18°C° 0 mm 2 m/s 717 mmHg 34%
    15:00 +19°C° 0 mm 2 m/s 717 mmHg 33%
    16:00 +16°C° 0 mm 2 m/s 717 mmHg 40%
    17:00 +14°C° 0 mm 2 m/s 716 mmHg 46%
    18:00 +12°C° 0 mm 2 m/s 716 mmHg 53%
    19:00 +10°C° 0 mm 2 m/s 716 mmHg 53%
    20:00 +9°C° 0 mm 2 m/s 716 mmHg 52%
    21:00 +8°C° 0 mm 2 m/s 716 mmHg 52%
    22:00 +7°C° 0 mm 2 m/s 716 mmHg 52%
    23:00 +7°C° 0 mm 2 m/s 716 mmHg 51%
    Arată mai mult